SHARC (42712 NORAD) Tracking and Keplerian Element Data

This shows tracking and keplerian element data for the satellite.

Feedback or suggestion? Click here.




ElementValue
Catalog42712
NameSHARC
Epoch Orbit11046
Epoch Day112.547342
Epoch Year2019
RAAN212.9066
Inclination51.6236
Eccentricity0.0011504
Argument of Perigee339.2963
Mean Anonmoly20.7582
Mean Motion16.06200609
Decay Rate0.00439007
L11 42712U 98067LT 19112.54734200 .00439007 10198-3 57471-3 0 9997
L22 42712 51.6236 212.9066 0011504 339.2963 20.7582 16.06200609110469

Live tracking and technical data element details for SHARC (NORAD 42712). SHARC can be tracked NOW for your location showing map with azimuth and elevation plus other details from your city location.

Track the satellite on the map from your city or location and see movement details for azimuth, elevation, latitude, longitude, range, height, and movement on the map or in text.







IsCatalogInMostPopularTable: catalog: 42712, numindb: 226
Update: records affected: 1



GetName: 42712 SHARC

Hit Count: updated at: Tue, 23 Apr 2019 20:55:04 GMT